Regional Weather Roundup
Issued by NWS

Home | Current Version | Previous Version | Graphics & Text | Print | Product List | Glossary Off
Versions: 1 2 3 4 5 6 7 8 9 10 11 12 13 14 15 16 17 18 19 20 21 22 23 24 25 26 27 28 29 30 31 32 33 34 35 36 37 38 39 40 41 42 43 44 45 46 47 48 49 50

000
ASUS45 KBOU 242207
RWRCO

WEATHER ROUNDUP FOR COLORADO
NATIONAL WEATHER SERVICE DENVER/BOULDER CO
400 PM MDT SAT JUN 24 2017

NOTE: "FAIR" INDICATES FEW OR NO CLOUDS BELOW 12000 FEET WITH NO
SIGNIFICANT WEATHER AND/OR OBSTRUCTIONS TO VISIBILITY.

COZ001>005-013-030-031-242300-
...NORTHWEST COLORADO...

CITY           SKY/WX    TMP DP  RH WIND       PRES   REMARKS
CRAIG          FAIR      80  20  10 W9        30.27F
HAYDEN         FAIR      75  25  15 W9G18     30.29F
MEEKER         FAIR      82  20  10 VRB3      30.28F
RABBIT EARS PA FAIR      59  32  36 NW8G20    30.55S
STEAMBOAT SPGS FAIR      74  32  21 S5        30.30F
WALDEN         FAIR      70  25  18 NW15      30.39F
$$

COZ006>008-011-242300-
...WEST CENTRAL VALLEYS...

CITY           SKY/WX    TMP DP  RH WIND       PRES   REMARKS
GRAND JUNCTION FAIR      91  29  11 W6G20     30.09F
MONTROSE       FAIR      89  23   9 N12G17    30.16F
EAGLE          MOSUNNY   84  23  10 W12G20    30.23F
RIFLE          FAIR      88  23   9 NW15      30.17F
DELTA          FAIR      96  11   4 W13G22    30.11F
NUCLA          FAIR      91  18   6 N12G20    30.20F
$$

COZ017>023-064>068-242300-
...SOUTHWEST COLORADO...

CITY           SKY/WX    TMP DP  RH WIND       PRES   REMARKS
DURANGO        FAIR      90  17   7 W18G32    30.18F
CORTEZ         FAIR      93  19   7 MISG      30.14F
PAGOSA SPRINGS FAIR      85  17   8 SW14G20   30.26F
TELLURIDE      FAIR      76  11   8 W13G20    30.44F
WOLF CREEK PAS PTSUNNY   61  32  33 S18G28    30.65F
$$

COZ009-010-012-014-032>034-037-058>063-242300-
...CENTRAL COLORADO...

CITY           SKY/WX    TMP DP  RH WIND       PRES   REMARKS
ASPEN          FAIR      77  18  11 N8G21     30.31S
BUENA VISTA    FAIR      80  11   7 NW15G24   30.26S
COPPER MTN     FAIR      61  19  20 NW15G28   30.62F
BERTHOUD PASS  FAIR      50  37  62 W35G43    30.65S
COTTONWOOD PAS PTSUNNY   77  -4   4 W8G22     30.43S
GUNNISON       FAIR      81  19  10 W12G20    30.29F
KREMMLING      NOT AVBL
LEADVILLE      FAIR      69  12  11 NW10G22   30.45S
MONARCH PASS   FAIR      64  19  17 W26G39    30.71F
SALIDA         FAIR      78  43  29 E23G32    30.32S
SUNLIGHT       FAIR      63  21  20 W9        30.59S
WILKERSON PASS PTSUNNY   54  41  62 E13G22    30.60S
$$

COZ069>075-242300-
...SAN LUIS VALLEY/SANGRE DE CRISTO MOUNTAINS...

CITY           SKY/WX    TMP DP  RH WIND       PRES   REMARKS
ALAMOSA        FAIR      84  26  12 N12       30.22F
DEL NORTE      FAIR      82  33  17 SE9       30.26F
LA VETA PASS   PTSUNNY   59  48  67 N16       30.60F
SAGUACHE       FAIR      84  10   6 N24G33    30.26F
$$

COZ035-036-038>040-242300-
...NORTHERN COLORADO FRONT RANGE...

CITY           SKY/WX    TMP DP  RH WIND       PRES   REMARKS
DENVER INTL AP PTSUNNY   76  44  32 NW12G17   30.27F
DMNS CITY PARK   N/A     74  46  36 N14       30.27S
AURORA         PTSUNNY   73  47  40 NW13      30.28F
FRONT RANGE AP CLOUDY    77  45  31 NE7G20    30.28S
ERIE MUNI ARPT FAIR      74  46  36 W7        30.28S
BOULDER MUN AP FAIR      73  45  35 CALM      30.29F
CENTENNIAL     PTSUNNY   72  47  40 NW8G18    30.29F
BROOMFIELD     FAIR      70  45  40 W3        30.31S
FORT COLLINS   PTSUNNY   73  46  38 SE3       30.28F
LONGMONT       CLOUDY    76  45  32 CALM      30.29F
$$

COZ041-046-047-076>085-087-088-242300-
...PIKES PEAK/PALMER DIVIDE AND SOUTHERN FOOTHILLS...

CITY           SKY/WX    TMP DP  RH WIND       PRES   REMARKS
COLO. SPRINGS  PTSUNNY   68  46  45 E7G21     30.33F
A. F. ACADEMY  FAIR      67  45  46 S9        30.33F
SCHRIEVER AFB  PTSUNNY   67  44  42 E10       30.33F
CHEYENNE MTN   PTSUNNY   61  46  58 E5        30.31F
ELLICOTT       PTSUNNY  N/A N/A N/A SE10      30.31F
FALCON           N/A     69  42  36 SE8       30.36F
FORT CARSON    CLOUDY    69  46  44 NE7       30.30F
LIMON          FAIR      71  44  37 SE10G21   30.29F
MONUMENT HILL  CLOUDY    64  43  45 S9G17     30.37S
CANON CITY     CLOUDY    73  52  46 E12       30.26S
WALSENBURG     MOCLDY    77  50  38 NE7       30.25F
TRINIDAD       FAIR      78  47  33 S5        30.23F
$$

COZ042>045-048>051-090-091-242300-
...NORTHEAST COLORADO...

CITY           SKY/WX    TMP DP  RH WIND       PRES   REMARKS
GREELEY ARPT   FAIR      75  44  33 VRB6      30.27F
AKRON          PTSUNNY   71  48  43 E13G18    30.28F
BURLINGTON     PTSUNNY   74  50  42 S8        30.25F
WRAY           CLOUDY    75  45  33 E3        30.26F
YUMA           MOCLDY    70  48  46 CALM      30.26F
STERLING       FAIR      73  46  38 E9        30.26S
HOLYOKE        NOT AVBL
FORT MORGAN    FAIR      75  44  32 NE7       30.27F
$$

COZ086-089-092>099-242300-
...SOUTHEAST COLORADO...

CITY           SKY/WX    TMP DP  RH WIND       PRES   REMARKS
PUEBLO         CLOUDY    76  49  38 SE7       30.22F
LA JUNTA       FAIR      80  48  32 SE14G22   30.20F
LAMAR          CLOUDY    79  46  31 S16       30.20F
SPRINGFIELD      N/A     74  49  41 S15G26    30.25F
$$



USA.gov is the U.S. government's official web portal to all federal, state and local government web resources and services.